FW4110 Weather Reports


Display with metric or nautical units.
time (UTC)temp
F
wind
direction
speed
MPH
gust
MPH
rain 1hr
in
rain 24hr
in
rain mn
in
humidity
%
barometer
mb
20260502220014 62 348 5.0 13.0 0.00 0.00 0.00 58 1021.2
20260502214512 62 75 3.0 8.0 0.00 0.00 0.00 59 1021.2
20260502213007 60 43 4.0 8.0 0.00 0.00 0.00 59 1021.3
20260502211508 60 327 3.0 8.0 0.00 0.00 0.00 60 1021.3
20260502210002 60 327 3.0 8.0 0.00 0.00 0.00 58 1021.3
20260502204600 60 349 4.0 7.0 0.00 0.00 0.00 58 1021.4
20260502203102 60 342 5.0 9.0 0.00 0.00 0.00 61 1021.6
20260502201600 59 334 2.0 8.0 0.00 0.00 0.00 61 1021.8
20260502200055 59 308 3.0 7.0 0.00 0.00 0.00 61 1022.0
20260502194603 59 13 2.0 9.0 0.00 0.00 0.00 61 1022.2
20260502193052 58 12 4.0 8.0 0.00 0.00 0.00 61 1022.3
20260502191549 59 28 6.0 10.0 0.00 0.00 0.00 61 1022.4
20260502190048 59 4 4.0 9.0 0.00 0.00 0.00 62 1022.2
20260502184553 60 132 0.0 6.0 0.00 0.00 0.00 62 1022.2
20260502183052 59 340 4.0 9.0 0.00 0.00 0.00 60 1022.2
20260502181543 58 322 3.0 10.0 0.00 0.00 0.00 62 1022.1
20260502170128 58 344 4.0 14.0 0.00 0.00 0.00 67 1022.5
20260502163025 57 4 3.0 10.0 0.00 0.00 0.00 64 1022.4
20260502161524 57 39 5.0 13.0 0.00 0.00 0.00 66 1022.5
20260502151507 57 76 3.0 10.0 0.00 0.00 0.00 45 1022.3
20260502123020 44 346 0.0 3.0 0.00 0.00 0.00 87 1021.1
20260502121518 43 340 0.0 1.0 0.00 0.00 0.00 86 1021.1
20260502114510 0 0.0 0.0 0.00 0.00 0.00 1020.5
20260502113004 0 0.0 0.0 0.00 0.00 0.00 1020.3
20260502111559 0 0.0 0.0 0.00 0.00 0.00 1020.4
20260502110053 40 241 0.0 0.0 0.00 0.00 0.00 84 1020.1
20260502104553 41 241 0.0 0.0 0.00 0.00 0.00 83 1020.0
20260502103048 41 241 0.0 0.0 0.00 0.00 0.00 83 1019.9
20260502101615 41 241 0.0 0.0 0.00 0.00 0.00 82 1019.8
20260502071511 43 41 0.0 0.0 0.00 0.00 0.00 75 1019.4
20260502070137 43 41 0.0 0.0 0.00 0.00 0.00 81 1019.7
20260502064503 44 40 0.0 0.0 0.00 0.00 0.00 84 1019.8
20260502063106 45 40 0.0 0.0 0.00 0.00 0.00 85 1019.7
20260502061602 46 41 0.0 0.0 0.00 0.00 0.00 84 1019.7
20260502060153 46 40 0.0 5.0 0.00 0.00 0.00 84 1019.7
20260502054555 46 187 1.0 4.0 0.00 0.00 0.00 85 1019.5
20260502053046 46 154 0.0 0.0 0.00 0.00 0.00 85 1019.5
20260502051601 46 156 0.0 0.0 0.00 0.00 0.00 84 1019.4
20260502050040 46 156 0.0 0.0 0.00 0.00 0.00 86 1019.5
20260502044537 46 156 0.0 0.0 0.00 0.00 0.00 86 1019.6
20260502043036 47 156 0.0 0.0 0.00 0.00 0.00 85 1019.6
20260502041536 48 156 0.0 0.0 0.00 0.00 0.00 83 1019.6
20260502040032 49 156 0.0 1.0 0.00 0.00 0.00 81 1019.7
20260502034531 50 195 0.0 0.0 0.00 0.02 0.00 81 1019.9
20260502033029 50 196 0.0 0.0 0.00 0.02 0.00 80 1020.0
20260502031526 51 160 0.0 1.0 0.00 0.02 0.00 78 1020.0
20260502030025 50 193 0.0 1.0 0.00 0.02 0.00 77 1020.0
20260502024523 51 194 0.0 2.0 0.00 0.02 0.00 77 1020.0
20260502023021 51 228 0.0 0.0 0.00 0.02 0.00 77 1020.0
20260502021519 51 228 0.0 1.0 0.00 0.02 0.00 77 1019.8
20260502020017 50 257 0.0 1.0 0.00 0.02 0.00 77 1019.7
20260502014519 50 264 0.0 0.0 0.00 0.02 0.00 76 1019.4
20260502013013 51 264 0.0 0.0 0.00 0.02 0.00 76 1019.0
20260502011610 52 264 0.0 0.0 0.00 0.02 0.00 74 1019.0
20260502010015 54 264 0.0 0.0 0.00 0.02 0.00 72 1018.7
20260502004507 57 264 0.0 0.0 0.00 0.02 0.00 68 1018.5
20260502003105 60 264 0.0 1.0 0.00 0.02 0.00 64 1018.5
20260502001503 62 322 0.0 2.0 0.00 0.02 0.00 59 1018.4
20260502000002 62 289 1.0 4.0 0.00 0.02 0.00 56 1018.4
20260501234608 61 17 2.0 6.0 0.00 0.02 0.00 55 1018.4
20260501233100 62 352 5.0 13.0 0.00 0.02 0.00 55 1018.3
20260501231655 62 275 3.0 8.0 0.00 0.02 0.00 55 1018.0
20260501230051 62 306 2.0 8.0 0.00 0.02 0.00 55 1018.2
20260501224647 62 24 7.0 13.0 0.00 0.02 0.00 54 1018.2
20260501223044 63 358 2.0 8.0 0.00 0.02 0.00 54 1018.3
20260501221542 63 341 2.0 8.0 0.00 0.02 0.00 53 1018.5